Location: Zagreb
(45.8000°N, 16.0000°E)
Time: 20:55:54
(UTC+01:00)

Oscar 11 - Pass Details

Date: 05 November 2020
Orbit: 613 x 625 km, 97.6° (Epoch: 01 December)

Event Time Altitude Azimuth Distance (km) Brightness Sun altitude
Rises 05:12:21 0° 29° (NNE) 2,890 10.8 -16.0°
Reaches altitude 10° 05:15:13 10° 49° (NE) 1,980 10.2 -15.5°
Maximum altitude 05:18:05 17° 91° (E) 1,554 10.3 -15.0°
Drops below altitude 10° 05:20:55 10° 133° (SE) 1,971 10.5 -14.5°
Sets 05:23:45 0° 153° (SSE) 2,872 11.0 -14.0°
